When you browse on this site, cookies collect data to enhance your experience and personalize the content and advertising you see.
Visit our Privacy Policy to learn more. By continuing to use the site, you agree to this use of cookies and data.
  • In Hungary
  • List of Countries
  • For 7 days
  • Water Temperature
  • Satellite Maps
  • Weather Map
  • News
  • Weather Widgets
  • user-avatar
    Login

    Hourly Weather Matiguás

    Today, 23 February, Saturday

    Time Temperature Precipitation Wind Pressure Humidity
    00:00 +23°C° 0 mm 1 mps 737 mmHg 97%
    01:00 +23°C° 0.1 mm 1 mps 737 mmHg 97%
    02:00 +23°C° 0.1 mm 1 mps 737 mmHg 97%
    03:00 +23°C° 0.1 mm 1 mps 737 mmHg 97%
    04:00 +23°C° 0.1 mm 1 mps 737 mmHg 97%
    05:00 +22°C° 0.1 mm 1 mps 737 mmHg 97%
    06:00 +22°C° 0 mm 1 mps 737 mmHg 97%
    07:00 +24°C° 0 mm 2 mps 738 mmHg 89%
    08:00 +26°C° 0 mm 2 mps 738 mmHg 81%
    09:00 +28°C° 0 mm 3 mps 738 mmHg 73%
    10:00 +29°C° 0 mm 3 mps 738 mmHg 66%
    11:00 +32°C° 0 mm 4 mps 738 mmHg 58%
    12:00 +34°C° 0 mm 4 mps 737 mmHg 51%
    13:00 +34°C° 0 mm 4 mps 737 mmHg 50%
    14:00 +34°C° 0 mm 4 mps 736 mmHg 50%
    15:00 +35°C° 0 mm 4 mps 736 mmHg 49%
    16:00 +32°C° 0.1 mm 4 mps 736 mmHg 59%
    17:00 +29°C° 0.1 mm 3 mps 736 mmHg 69%
    18:00 +27°C° 0.1 mm 3 mps 736 mmHg 78%
    19:00 +26°C° 0.2 mm 3 mps 737 mmHg 84%
    20:00 +25°C° 0.2 mm 2 mps 737 mmHg 90%
    21:00 +24°C° 0.2 mm 2 mps 738 mmHg 96%
    22:00 +24°C° 0.1 mm 2 mps 738 mmHg 97%
    23:00 +24°C° 0.1 mm 2 mps 738 mmHg 97%

    Tomorrow, 24 February, Sunday

    Time Temperature Precipitation Wind Pressure Humidity
    00:00 +24°C° 0.1 mm 2 mps 738 mmHg 97%
    01:00 +24°C° 0.1 mm 2 mps 738 mmHg 97%
    02:00 +24°C° 0.1 mm 2 mps 738 mmHg 97%
    03:00 +23°C° 0.1 mm 2 mps 737 mmHg 97%
    04:00 +23°C° 0.1 mm 2 mps 737 mmHg 97%
    05:00 +23°C° 0.1 mm 2 mps 737 mmHg 97%
    06:00 +23°C° 0.1 mm 2 mps 737 mmHg 97%
    07:00 +24°C° 0.1 mm 2 mps 738 mmHg 93%
    08:00 +25°C° 0.1 mm 3 mps 738 mmHg 88%
    09:00 +26°C° 0.1 mm 4 mps 739 mmHg 83%
    10:00 +28°C° 0.2 mm 4 mps 738 mmHg 74%
    11:00 +29°C° 0.2 mm 5 mps 738 mmHg 66%
    12:00 +32°C° 0.2 mm 5 mps 738 mmHg 58%
    13:00 +33°C° 0.1 mm 6 mps 737 mmHg 54%
    14:00 +33°C° 0.1 mm 6 mps 736 mmHg 51%
    15:00 +34°C° 0.1 mm 6 mps 735 mmHg 48%
    16:00 +32°C° 0 mm 6 mps 736 mmHg 54%
    17:00 +29°C° 0 mm 5 mps 736 mmHg 61%
    18:00 +27°C° 0 mm 5 mps 736 mmHg 67%
    19:00 +26°C° 0 mm 4 mps 737 mmHg 74%
    20:00 +24°C° 0 mm 3 mps 737 mmHg 80%
    21:00 +22°C° 0 mm 3 mps 738 mmHg 86%
    22:00 +21°C° 0 mm 2 mps 738 mmHg 89%
    23:00 +21°C° 0 mm 2 mps 738 mmHg 91%

    Day after tomorrow, 25 February, Monday

    Time Temperature Precipitation Wind Pressure Humidity
    00:00 +20°C° 0 mm 2 mps 738 mmHg 94%
    01:00 +20°C° 0.1 mm 2 mps 738 mmHg 94%
    02:00 +21°C° 0.1 mm 2 mps 737 mmHg 93%
    03:00 +21°C° 0.1 mm 2 mps 737 mmHg 93%
    04:00 +21°C° 0.2 mm 2 mps 737 mmHg 94%
    05:00 +21°C° 0.2 mm 2 mps 737 mmHg 95%
    06:00 +21°C° 0.2 mm 3 mps 737 mmHg 96%
    07:00 +22°C° 0.2 mm 3 mps 738 mmHg 94%
    08:00 +23°C° 0.2 mm 4 mps 739 mmHg 92%
    09:00 +23°C° 0.2 mm 5 mps 739 mmHg 90%
    10:00 +27°C° 0.1 mm 6 mps 739 mmHg 76%
    11:00 +29°C° 0.1 mm 7 mps 739 mmHg 62%
    12:00 +33°C° 0.1 mm 7 mps 738 mmHg 47%
    13:00 +33°C° 0.1 mm 7 mps 737 mmHg 49%
    14:00 +32°C° 0.1 mm 7 mps 737 mmHg 50%
    15:00 +32°C° 0.1 mm 7 mps 736 mmHg 51%
    16:00 +29°C° 0.1 mm 6 mps 736 mmHg 58%
    17:00 +28°C° 0.1 mm 5 mps 737 mmHg 66%
    18:00 +26°C° 0.1 mm 5 mps 737 mmHg 74%
    19:00 +25°C° 0.1 mm 4 mps 738 mmHg 80%
    20:00 +23°C° 0.1 mm 4 mps 738 mmHg 86%
    21:00 +22°C° 0.1 mm 3 mps 739 mmHg 92%
    22:00 +22°C° 0.1 mm 3 mps 739 mmHg 93%
    23:00 +21°C° 0.1 mm 3 mps 739 mmHg 94%

    26 February, Tuesday

    Time Temperature Precipitation Wind Pressure Humidity
    00:00 +21°C° 0.1 mm 3 mps 739 mmHg 95%
    01:00 +21°C° 0.1 mm 3 mps 738 mmHg 95%
    02:00 +21°C° 0.1 mm 3 mps 738 mmHg 96%
    03:00 +20°C° 0.1 mm 3 mps 737 mmHg 96%
    04:00 +20°C° 0.1 mm 3 mps 738 mmHg 96%
    05:00 +20°C° 0.1 mm 3 mps 738 mmHg 96%
    06:00 +20°C° 0.1 mm 3 mps 738 mmHg 96%
    07:00 +22°C° 0.1 mm 5 mps 739 mmHg 86%
    08:00 +24°C° 0.1 mm 6 mps 740 mmHg 77%
    09:00 +27°C° 0.1 mm 7 mps 740 mmHg 67%
    10:00 +28°C° 0 mm 7 mps 740 mmHg 60%
    11:00 +31°C° 0 mm 8 mps 739 mmHg 53%
    12:00 +32°C° 0 mm 8 mps 739 mmHg 46%
    13:00 +33°C° 0 mm 8 mps 738 mmHg 43%
    14:00 +33°C° 0 mm 8 mps 737 mmHg 40%
    15:00 +33°C° 0 mm 8 mps 736 mmHg 37%
    16:00 +30°C° 0 mm 7 mps 736 mmHg 43%
    17:00 +29°C° 0 mm 6 mps 737 mmHg 49%
    18:00 +27°C° 0 mm 5 mps 737 mmHg 55%
    19:00 +25°C° 0 mm 4 mps 737 mmHg 63%
    20:00 +23°C° 0 mm 4 mps 738 mmHg 71%
    21:00 +22°C° 0 mm 3 mps 739 mmHg 79%
    22:00 +21°C° 0 mm 3 mps 738 mmHg 84%
    23:00 +20°C° 0 mm 3 mps 738 mmHg 89%

    27 February, Wednesday

    Time Temperature Precipitation Wind Pressure Humidity
    00:00 +20°C° 0 mm 3 mps 738 mmHg 93%
    01:00 +20°C° 0 mm 3 mps 738 mmHg 93%
    02:00 +19°C° 0 mm 3 mps 737 mmHg 94%
    03:00 +19°C° 0 mm 3 mps 737 mmHg 94%
    04:00 +19°C° 0 mm 2 mps 737 mmHg 94%
    05:00 +19°C° 0 mm 2 mps 737 mmHg 93%
    06:00 +19°C° 0 mm 2 mps 738 mmHg 93%
    07:00 +21°C° 0 mm 3 mps 738 mmHg 84%
    08:00 +25°C° 0 mm 5 mps 739 mmHg 75%
    09:00 +27°C° 0 mm 6 mps 739 mmHg 65%
    10:00 +28°C° 0.1 mm 6 mps 739 mmHg 62%
    11:00 +29°C° 0.1 mm 6 mps 738 mmHg 58%
    12:00 +32°C° 0.1 mm 6 mps 738 mmHg 55%
    13:00 +32°C° 0.1 mm 6 mps 737 mmHg 53%
    14:00 +32°C° 0.1 mm 6 mps 736 mmHg 52%
    15:00 +32°C° 0.1 mm 6 mps 735 mmHg 50%
    16:00 +30°C° 0 mm 5 mps 736 mmHg 57%
    17:00 +28°C° 0 mm 5 mps 736 mmHg 63%
    18:00 +27°C° 0 mm 4 mps 736 mmHg 69%
    19:00 +26°C° 0 mm 3 mps 737 mmHg 77%
    20:00 +24°C° 0 mm 3 mps 737 mmHg 84%
    21:00 +22°C° 0 mm 3 mps 738 mmHg 91%
    22:00 +22°C° 0 mm 3 mps 738 mmHg 93%
    23:00 +23°C° 0 mm 2 mps 738 mmHg 95%

    28 February, Thursday

    Time Temperature Precipitation Wind Pressure Humidity
    00:00 +21°C° 0 mm 2 mps 737 mmHg 97%
    01:00 +21°C° 0 mm 2 mps 737 mmHg 97%
    02:00 +21°C° 0 mm 2 mps 737 mmHg 97%
    03:00 +21°C° 0 mm 2 mps 736 mmHg 97%
    04:00 +21°C° 0 mm 2 mps 737 mmHg 96%
    05:00 +21°C° 0 mm 2 mps 737 mmHg 96%
    06:00 +21°C° 0 mm 2 mps 737 mmHg 96%
    07:00 +24°C° 0 mm 3 mps 738 mmHg 86%
    08:00 +26°C° 0 mm 4 mps 738 mmHg 77%
    09:00 +28°C° 0 mm 5 mps 739 mmHg 67%
    10:00 +29°C° 0 mm 6 mps 738 mmHg 61%
    11:00 +32°C° 0 mm 6 mps 738 mmHg 55%
    12:00 +33°C° 0 mm 6 mps 737 mmHg 48%
    13:00 +33°C° 0 mm 6 mps 736 mmHg 48%
    14:00 +33°C° 0 mm 6 mps 736 mmHg 48%
    15:00 +33°C° 0 mm 6 mps 735 mmHg 48%
    16:00 +30°C° 0 mm 5 mps 735 mmHg 55%
    17:00 +28°C° 0 mm 4 mps 736 mmHg 62%
    18:00 +27°C° 0 mm 3 mps 736 mmHg 69%
    19:00 +25°C° 0 mm 2 mps 737 mmHg 77%
    20:00 +24°C° 0 mm 2 mps 737 mmHg 84%
    21:00 +23°C° 0 mm 2 mps 737 mmHg 91%
    22:00 +21°C° 0 mm 2 mps 737 mmHg 93%
    23:00 +21°C° 0 mm 2 mps 737 mmHg 95%
    Show more